Location: Newark
(48.6461°N, 4.3644°W)
Time: 22:09:17
(UTC+00:00)

deb Explorer IX - Pass Details

Date: 30 January 2020
Orbit: 549 x 1099 km, 38.8° (Epoch: 18 February)

Event Time Altitude Azimuth Distance (km) Brightness Sun altitude
Rises 19:16:25 0° 210° (SSW) 3,439 ? -20.6°
Reaches altitude 10° 19:19:36 10° 193° (SSW) 2,606 ? -21.1°
Maximum altitude 19:23:51 19° 150° (SSE) 2,147 ? -21.8°
Enters shadow 19:24:19 19° 145° (SE) 2,165 ? -21.9°
